Location: Unspecified
(0.0000°N, 0.0000°E)
Time: 02:37:31
(UTC+00:00)

Envisat - Visible Passes

Search period start: 17 October 2019 00:00
Search period end: 27 October 2019 00:00
Orbit: 764 x 766 km, 98.1° (Epoch: 16 October)

Date Brightness Start Highest point End Pass type
(mag) Time Alt. Az. Time Alt. Az. Time Alt. Az.
17 Oct 4.8 19:10:08 10° SSW 19:14:36 31° WSW 19:19:04 10° NW visible
18 Oct 3.0 18:32:51 10° SSE 18:37:57 89° ENE 18:43:01 10° NNW visible
19 Oct 6.0 19:37:09 10° SW 19:40:01 15° WSW 19:42:52 10° WNW visible
20 Oct 4.2 18:58:35 10° S 19:03:22 43° WSW 19:08:09 10° NNW visible
21 Oct 3.0 18:21:40 10° SSE 18:26:42 66° ENE 18:31:43 10° N visible
22 Oct 5.5 19:25:04 10° SSW 19:28:47 21° WSW 19:32:31 10° NW visible
23 Oct 3.6 18:47:09 10° S 18:52:08 59° WSW 18:57:07 10° NNW visible
24 Oct 3.2 18:10:36 10° SSE 18:15:28 47° ENE 18:20:19 10° N visible
25 Oct 5.1 19:13:16 10° SSW 19:17:33 28° WSW 19:21:51 10° NW visible
26 Oct 3.1 18:35:49 10° S 18:40:54 81° WSW 18:45:57 10° NNW visible
